When you browse on this site, cookies collect data to enhance your experience and personalize the content and advertising you see.
Visit our Privacy Policy to learn more. By continuing to use the site, you agree to this use of cookies and data.
  • In Latvia
  • List of Countries
  • For 7 days
  • Water Temperature
  • Satellite Maps
  • Weather Map
  • Weather Widgets
  • user-avatar
    Login

    Hourly Weather Cambridge

    Today, 18 December, Tuesday

    Time Temperature Precipitation Wind Pressure Humidity
    00:00 +7°C° 0 mm 5 mps 761 mmHg 92%
    01:00 +7°C° 0 mm 6 mps 760 mmHg 92%
    02:00 +7°C° 0 mm 6 mps 760 mmHg 91%
    03:00 +7°C° 0 mm 6 mps 760 mmHg 91%
    04:00 +8°C° 0 mm 7 mps 759 mmHg 89%
    05:00 +8°C° 0 mm 7 mps 759 mmHg 88%
    06:00 +8°C° 0 mm 6 mps 758 mmHg 88%
    07:00 +8°C° 0 mm 7 mps 758 mmHg 87%
    08:00 +8°C° 0 mm 7 mps 757 mmHg 86%
    09:00 +7°C° 0 mm 8 mps 757 mmHg 85%
    10:00 +7°C° 0 mm 9 mps 756 mmHg 81%
    11:00 +7°C° 0 mm 9 mps 756 mmHg 78%
    12:00 +8°C° 0 mm 10 mps 755 mmHg 75%
    13:00 +7°C° 0.2 mm 9 mps 754 mmHg 74%
    14:00 +7°C° 0.2 mm 9 mps 753 mmHg 72%
    15:00 +7°C° 0.2 mm 9 mps 753 mmHg 71%
    16:00 +7°C° 0.5 mm 9 mps 752 mmHg 73%
    17:00 +6°C° 0.5 mm 9 mps 751 mmHg 76%
    18:00 +6°C° 0.5 mm 9 mps 751 mmHg 78%
    19:00 +6°C° 1 mm 8 mps 751 mmHg 81%
    20:00 +6°C° 1 mm 8 mps 751 mmHg 85%
    21:00 +6°C° 1 mm 7 mps 750 mmHg 88%
    22:00 +7°C° 0.1 mm 6 mps 751 mmHg 89%
    23:00 +7°C° 0.1 mm 5 mps 751 mmHg 89%

    Tomorrow, 19 December, Wednesday

    Time Temperature Precipitation Wind Pressure Humidity
    00:00 +6°C° 0.1 mm 4 mps 751 mmHg 90%
    01:00 +6°C° 0 mm 4 mps 751 mmHg 90%
    02:00 +6°C° 0 mm 4 mps 751 mmHg 91%
    03:00 +6°C° 0 mm 4 mps 751 mmHg 91%
    04:00 +6°C° 0 mm 4 mps 751 mmHg 91%
    05:00 +6°C° 0 mm 4 mps 752 mmHg 90%
    06:00 +6°C° 0 mm 4 mps 752 mmHg 90%
    07:00 +6°C° 0.1 mm 4 mps 752 mmHg 90%
    08:00 +6°C° 0.1 mm 4 mps 752 mmHg 90%
    09:00 +6°C° 0.1 mm 4 mps 752 mmHg 89%
    10:00 +7°C° 0.1 mm 4 mps 752 mmHg 86%
    11:00 +7°C° 0.1 mm 4 mps 752 mmHg 83%
    12:00 +8°C° 0.1 mm 5 mps 752 mmHg 79%
    13:00 +7°C° 0 mm 4 mps 752 mmHg 80%
    14:00 +7°C° 0 mm 4 mps 752 mmHg 80%
    15:00 +7°C° 0 mm 4 mps 752 mmHg 80%
    16:00 +6°C° 0 mm 4 mps 752 mmHg 81%
    17:00 +6°C° 0 mm 4 mps 752 mmHg 82%
    18:00 +6°C° 0 mm 5 mps 752 mmHg 84%
    19:00 +6°C° 0 mm 5 mps 752 mmHg 83%
    20:00 +6°C° 0 mm 5 mps 752 mmHg 83%
    21:00 +6°C° 0 mm 5 mps 752 mmHg 83%
    22:00 +6°C° 0 mm 5 mps 752 mmHg 84%
    23:00 +5°C° 0 mm 5 mps 752 mmHg 85%

    Day after tomorrow, 20 December, Thursday

    Time Temperature Precipitation Wind Pressure Humidity
    00:00 +5°C° 0 mm 5 mps 752 mmHg 86%
    01:00 +5°C° 0 mm 5 mps 752 mmHg 86%
    02:00 +5°C° 0 mm 5 mps 752 mmHg 86%
    03:00 +5°C° 0 mm 5 mps 752 mmHg 86%
    04:00 +5°C° 0 mm 5 mps 752 mmHg 87%
    05:00 +5°C° 0 mm 5 mps 752 mmHg 87%
    06:00 +5°C° 0 mm 5 mps 752 mmHg 88%
    07:00 +4°C° 0 mm 6 mps 753 mmHg 88%
    08:00 +4°C° 0 mm 6 mps 753 mmHg 87%
    09:00 +4°C° 0 mm 6 mps 754 mmHg 87%
    10:00 +5°C° 0 mm 6 mps 754 mmHg 83%
    11:00 +7°C° 0 mm 6 mps 754 mmHg 79%
    12:00 +8°C° 0 mm 7 mps 755 mmHg 75%
    13:00 +8°C° 0 mm 6 mps 755 mmHg 76%
    14:00 +8°C° 0 mm 6 mps 755 mmHg 77%
    15:00 +7°C° 0 mm 5 mps 755 mmHg 78%
    16:00 +7°C° 0.1 mm 5 mps 755 mmHg 79%
    17:00 +7°C° 0.1 mm 5 mps 755 mmHg 80%
    18:00 +7°C° 0.1 mm 5 mps 755 mmHg 81%
    19:00 +6°C° 0 mm 5 mps 755 mmHg 82%
    20:00 +6°C° 0 mm 5 mps 755 mmHg 83%
    21:00 +6°C° 0 mm 5 mps 755 mmHg 84%
    22:00 +6°C° 0.6 mm 5 mps 754 mmHg 87%
    23:00 +7°C° 0.6 mm 5 mps 753 mmHg 90%

    21 December, Friday

    Time Temperature Precipitation Wind Pressure Humidity
    00:00 +8°C° 0.6 mm 6 mps 752 mmHg 92%
    01:00 +8°C° 1.2 mm 6 mps 750 mmHg 92%
    02:00 +9°C° 1.2 mm 6 mps 749 mmHg 93%
    03:00 +10°C° 1.2 mm 6 mps 748 mmHg 93%
    04:00 +11°C° 0.5 mm 7 mps 747 mmHg 91%
    05:00 +11°C° 0.5 mm 7 mps 746 mmHg 90%
    06:00 +12°C° 0.5 mm 8 mps 746 mmHg 88%
    07:00 +11°C° 0.1 mm 9 mps 746 mmHg 84%
    08:00 +11°C° 0.1 mm 9 mps 747 mmHg 81%
    09:00 +9°C° 0.1 mm 10 mps 747 mmHg 77%
    10:00 +9°C° 0 mm 10 mps 748 mmHg 74%
    11:00 +8°C° 0 mm 10 mps 749 mmHg 71%
    12:00 +8°C° 0 mm 10 mps 750 mmHg 67%
    13:00 +8°C° 0 mm 9 mps 750 mmHg 67%
    14:00 +7°C° 0 mm 9 mps 751 mmHg 67%
    15:00 +7°C° 0 mm 8 mps 751 mmHg 67%
    16:00 +7°C° 0 mm 8 mps 752 mmHg 70%
    17:00 +7°C° 0 mm 8 mps 752 mmHg 72%
    18:00 +6°C° 0 mm 8 mps 753 mmHg 75%
    19:00 +7°C° 0 mm 8 mps 753 mmHg 77%
    20:00 +7°C° 0 mm 8 mps 753 mmHg 79%
    21:00 +7°C° 0 mm 8 mps 754 mmHg 81%
    22:00 +7°C° 0.3 mm 8 mps 753 mmHg 82%
    23:00 +7°C° 0.3 mm 8 mps 753 mmHg 83%

    22 December, Saturday

    Time Temperature Precipitation Wind Pressure Humidity
    00:00 +7°C° 0.3 mm 8 mps 753 mmHg 83%
    01:00 +9°C° 0.4 mm 8 mps 753 mmHg 84%
    02:00 +9°C° 0.4 mm 7 mps 752 mmHg 84%
    03:00 +9°C° 0.4 mm 7 mps 752 mmHg 84%
    04:00 +9°C° 0 mm 8 mps 752 mmHg 82%
    05:00 +7°C° 0 mm 8 mps 752 mmHg 80%
    06:00 +7°C° 0 mm 8 mps 752 mmHg 79%
    07:00 +7°C° 0 mm 8 mps 752 mmHg 78%
    08:00 +6°C° 0 mm 8 mps 753 mmHg 77%
    09:00 +6°C° 0 mm 8 mps 754 mmHg 77%
    10:00 +7°C° 0 mm 8 mps 755 mmHg 75%
    11:00 +7°C° 0 mm 8 mps 756 mmHg 74%
    12:00 +9°C° 0 mm 8 mps 757 mmHg 73%
    13:00 +8°C° 0 mm 7 mps 757 mmHg 73%
    14:00 +8°C° 0 mm 6 mps 758 mmHg 74%
    15:00 +8°C° 0 mm 5 mps 758 mmHg 75%
    16:00 +7°C° 0 mm 5 mps 759 mmHg 76%
    17:00 +7°C° 0 mm 5 mps 759 mmHg 78%
    18:00 +6°C° 0 mm 5 mps 760 mmHg 79%
    19:00 +6°C° 0 mm 5 mps 760 mmHg 81%
    20:00 +5°C° 0 mm 5 mps 761 mmHg 82%
    21:00 +5°C° 0 mm 5 mps 761 mmHg 83%
    22:00 +5°C° 0 mm 5 mps 762 mmHg 84%
    23:00 +5°C° 0 mm 5 mps 762 mmHg 86%

    23 December, Sunday

    Time Temperature Precipitation Wind Pressure Humidity
    00:00 +5°C° 0 mm 4 mps 762 mmHg 88%
    01:00 +4°C° 0 mm 4 mps 763 mmHg 89%
    02:00 +4°C° 0 mm 4 mps 763 mmHg 89%
    03:00 +4°C° 0 mm 4 mps 763 mmHg 90%
    04:00 +4°C° 0 mm 4 mps 763 mmHg 90%
    05:00 +4°C° 0 mm 3 mps 763 mmHg 91%
    06:00 +4°C° 0 mm 3 mps 763 mmHg 92%
    07:00 +4°C° 0 mm 3 mps 764 mmHg 91%
    08:00 +5°C° 0 mm 3 mps 764 mmHg 91%
    09:00 +5°C° 0 mm 3 mps 764 mmHg 91%
    10:00 +7°C° 0.1 mm 3 mps 764 mmHg 90%
    11:00 +6°C° 0.1 mm 4 mps 763 mmHg 89%
    12:00 +7°C° 0.1 mm 4 mps 763 mmHg 88%
    13:00 +7°C° 0.2 mm 4 mps 763 mmHg 89%
    14:00 +7°C° 0.2 mm 4 mps 762 mmHg 90%
    15:00 +7°C° 0.2 mm 5 mps 761 mmHg 91%
    16:00 +7°C° 0.5 mm 5 mps 761 mmHg 92%
    17:00 +8°C° 0.5 mm 5 mps 760 mmHg 93%
    18:00 +8°C° 0.5 mm 6 mps 760 mmHg 94%
    19:00 +9°C° 0.7 mm 6 mps 759 mmHg 93%
    20:00 +10°C° 0.7 mm 7 mps 759 mmHg 91%
    21:00 +10°C° 0.7 mm 7 mps 759 mmHg 90%
    22:00 +10°C° 0.1 mm 7 mps 759 mmHg 89%
    23:00 +10°C° 0.1 mm 7 mps 759 mmHg 88%
    Show more